Simultaneous Nadir Overpasses (SNOs) Predictions

Prediction of SNOs between METOP-B and NOAA-19 Satellite Orbit:

Table of predicted SNOs for the next 14.0 days since TLE Epoch: 3/29/2014
Index Date (METOP-B) Time (METOP-B) Lat,Lon (METOP-B) SZA (METOP-B ) Date (NOAA-19) Time (NOAA-19) Lat,Lon (NOAA-19) SZA (NOAA-19 ) Distance(km) Time Diff (sec)
1 04/03/2014 05:14:52 74.14, 96.63 68.85 04/03/2014 05:13:41 74.13, 95.23 68.90 42.60 71
2 04/03/2014 06:05:41 -73.81, -96.85 111.47 04/03/2014 06:04:41 -73.83, -96.78 111.45 2.57 60
3 04/03/2014 06:56:20 73.82, 70.51 68.53 04/03/2014 06:55:38 73.80, 70.55 68.51 2.70 42
4 04/03/2014 07:47:03 -73.79,-122.24 111.52 04/03/2014 07:46:44 -73.79,-122.20 111.52 1.17 19
5 04/03/2014 08:37:42 73.80, 45.12 68.48 04/03/2014 08:37:42 73.81, 45.01 68.50 3.56 0
6
